GW4862 Weather Reports


time (UTC)temp
C
wind
direction
speed
KPH
gust
KPH
rain 1hr
cm
rain 24hr
cm
rain mn
cm
humidity
%
barometer
mb
20260507172457 14 306 1.6 3.2 0.00 0.00 0.00 43 1015.2
20260507171954 14 339 4.8 6.4 0.00 0.00 0.00 47 1015.4
20260507171449 14 287 3.2 4.8 0.00 0.00 0.00 43 1015.3
20260507170947 15 237 6.4 12.9 0.00 0.00 0.00 39 1015.3
20260507170443 15 333 1.6 3.2 0.00 0.00 0.00 42 1015.4
20260507165940 14 333 1.6 1.6 0.00 0.00 0.00 44 1015.3
20260507165436 14 349 1.6 3.2 0.00 0.00 0.00 44 1015.5
20260507164932 13 318 4.8 6.4 0.00 0.00 0.00 41 1015.5
20260507164429 13 225 6.4 9.7 0.00 0.00 0.00 44 1015.4
20260507163926 13 328 3.2 4.8 0.00 0.00 0.00 41 1015.5
20260507163423 13 279 3.2 4.8 0.00 0.00 0.00 42 1015.5
20260507162920 13 311 1.6 3.2 0.00 0.00 0.00 43 1015.6
20260507162415 13 331 1.6 1.6 0.00 0.00 0.00 41 1015.5
20260507161913 13 271 6.4 9.7 0.00 0.00 0.00 43 1015.5
20260507161409 13 222 3.2 4.8 0.00 0.00 0.00 45 1015.7
20260507160906 13 250 3.2 3.2 0.00 0.00 0.00 42 1015.6
20260507160401 13 288 3.2 6.4 0.00 0.00 0.00 46 1015.6
20260507155858 13 206 6.4 11.3 0.00 0.00 0.00 41 1015.7
20260507155354 13 326 1.6 3.2 0.00 0.00 0.00 41 1015.7
20260507154850 13 317 0.0 1.6 0.00 0.00 0.00 46 1015.5
20260507154348 13 319 3.2 3.2 0.00 0.00 0.00 42 1015.8
20260507153845 13 336 3.2 3.2 0.00 0.00 0.00 43 1015.5
20260507153341 13 200 4.8 4.8 0.00 0.00 0.00 42 1015.7
20260507152838 13 336 1.6 3.2 0.00 0.00 0.00 43 1015.6
20260507152334 12 335 1.6 1.6 0.00 0.00 0.00 43 1015.4
20260507151830 13 319 3.2 6.4 0.00 0.00 0.00 42 1015.5
20260507151327 13 331 1.6 3.2 0.00 0.00 0.00 41 1015.4
20260507150824 13 316 3.2 4.8 0.00 0.00 0.00 45 1015.5
20260507150320 13 322 3.2 3.2 0.00 0.00 0.00 48 1015.6
20260507145816 12 325 1.6 3.2 0.00 0.00 0.00 44 1015.1
20260507145313 12 326 3.2 4.8 0.00 0.00 0.00 42 1015.3
20260507144810 12 333 1.6 1.6 0.00 0.00 0.00 45 1015.1
20260507144307 12 341 1.6 3.2 0.00 0.00 0.00 46 1015.4
20260507143804 12 342 3.2 3.2 0.00 0.00 0.00 44 1015.3
20260507143301 12 295 1.6 1.6 0.00 0.00 0.00 47 1015.4
20260507142757 12 301 4.8 9.7 0.00 0.00 0.00 45 1015.4
20260507142254 12 326 1.6 3.2 0.00 0.00 0.00 45 1015.6
20260507141750 12 347 1.6 1.6 0.00 0.00 0.00 50 1015.6
20260507141247 12 321 1.6 3.2 0.00 0.00 0.00 49 1015.5
20260507140743 12 342 0.0 1.6 0.00 0.00 0.00 49 1015.5
20260507140241 11 244 4.8 6.4 0.00 0.00 0.00 48 1015.4
20260507135738 11 327 1.6 3.2 0.00 0.00 0.00 46 1015.5
20260507135235 12 344 3.2 3.2 0.00 0.00 0.00 49 1015.6
20260507134731 11 284 1.6 3.2 0.00 0.00 0.00 53 1015.6
20260507134228 12 339 1.6 1.6 0.00 0.00 0.00 51 1015.7
20260507133724 11 340 0.0 1.6 0.00 0.00 0.00 52 1015.6
20260507133221 12 328 1.6 1.6 0.00 0.00 0.00 54 1015.7
20260507132718 11 341 0.0 0.0 0.00 0.00 0.00 54 1015.6
20260507132215 10 339 0.0 1.6 0.00 0.00 0.00 55 1015.8
20260507131711 10 235 4.8 9.7 0.00 0.00 0.00 57 1015.6
20260507131209 11 284 6.4 6.4 0.00 0.00 0.00 55 1015.6
20260507130705 11 340 0.0 1.6 0.00 0.00 0.00 59 1015.5
20260507130203 11 229 3.2 4.8 0.00 0.00 0.00 60 1015.5
20260507125702 10 322 1.6 3.2 0.00 0.00 0.00 61 1015.6
20260507125159 10 327 1.6 1.6 0.00 0.00 0.00 62 1015.7
20260507124655 10 318 1.6 1.6 0.00 0.00 0.00 62 1015.6
20260507124153 10 338 1.6 1.6 0.00 0.00 0.00 62 1015.6
20260507123651 10 347 1.6 1.6 0.00 0.00 0.00 65 1015.6
20260507123148 10 341 1.6 1.6 0.00 0.00 0.00 64 1015.7
20260507122643 10 333 0.0 1.6 0.00 0.00 0.00 66 1015.7
20260507122139 10 340 1.6 3.2 0.00 0.00 0.00 62 1015.6
20260507121635 10 328 0.0 1.6 0.00 0.00 0.00 66 1015.6
20260507121131 8 341 0.0 0.0 0.00 0.00 0.00 70 1015.6
20260507120627 8 326 1.6 3.2 0.00 0.00 0.00 70 1015.7
20260507120124 7 338 0.0 0.0 0.00 0.00 0.00 76 1015.5
20260507115621 6 333 0.0 1.6 0.00 0.00 0.00 86 1015.5
20260507115116 6 340 0.0 0.0 0.00 0.00 0.00 90 1015.6
20260507114612 6 315 0.0 1.6 0.00 0.00 0.00 92 1015.6
20260507114110 6 338 0.0 0.0 0.00 0.00 0.00 93 1015.6
20260507113607 6 338 0.0 0.0 0.00 0.00 0.00 93 1015.6
20260507113104 5 334 0.0 0.0 0.00 0.00 0.00 93 1015.6
20260507112602 5 330 0.0 0.0 0.00 0.00 0.00 93 1015.5
20260507112058 5 334 0.0 0.0 0.00 0.00 0.00 93 1015.5
20260507111555 5 332 0.0 0.0 0.00 0.00 0.00 93 1015.4
20260507111052 3 332 0.0 0.0 0.00 0.00 0.00 93 1015.3
20260507110548 3 332 0.0 0.0 0.00 0.00 0.00 93 1015.1
20260507110045 3 332 0.0 0.0 0.00 0.00 0.00 93 1015.1
20260507105542 3 332 0.0 0.0 0.00 0.00 0.00 93 1014.9
20260507105038 3 332 0.0 0.0 0.00 0.00 0.00 93 1015.1
20260507104536 3 332 0.0 0.0 0.00 0.00 0.00 93 1014.8
20260507104032 3 332 0.0 0.0 0.00 0.00 0.00 93 1014.9
20260507103528 3 332 0.0 0.0 0.00 0.00 0.00 93 1014.8
20260507103025 3 332 0.0 0.0 0.00 0.00 0.00 93 1014.9
20260507102521 3 332 0.0 0.0 0.00 0.00 0.00 93 1014.9
20260507102017 3 332 0.0 0.0 0.00 0.00 0.00 93 1014.9
20260507101513 3 334 0.0 0.0 0.00 0.00 0.00 93 1014.8
20260507101010 3 334 0.0 0.0 0.00 0.00 0.00 93 1015.1
20260507100507 3 334 0.0 0.0 0.00 0.00 0.00 93 1014.8
20260507100005 3 334 0.0 0.0 0.00 0.00 0.00 93 1014.8
20260507095503 3 334 0.0 0.0 0.00 0.00 0.00 93 1014.9
20260507094959 3 334 0.0 0.0 0.00 0.00 0.00 93 1014.9
20260507094455 3 334 0.0 0.0 0.00 0.00 0.00 93 1014.9
20260507093953 3 334 0.0 0.0 0.00 0.00 0.00 93 1014.9
20260507093450 3 334 0.0 0.0 0.00 0.00 0.00 93 1014.6
20260507092948 3 334 0.0 0.0 0.00 0.00 0.00 93 1014.7
20260507092444 3 334 0.0 0.0 0.00 0.00 0.00 93 1014.7
20260507091941 3 334 0.0 0.0 0.00 0.00 0.00 92 1014.7
20260507091438 3 334 0.0 0.0 0.00 0.00 0.00 92 1014.8
20260507090933 3 334 0.0 0.0 0.00 0.00 0.00 92 1014.7
20260507090430 4 334 0.0 0.0 0.00 0.00 0.00 92 1014.7
20260507085926 4 333 0.0 0.0 0.00 0.00 0.00 92 1014.5
20260507085424 4 333 0.0 0.0 0.00 0.00 0.00 92 1014.6
20260507084921 4 335 0.0 0.0 0.00 0.00 0.00 92 1014.4
20260507084418 4 336 0.0 0.0 0.00 0.00 0.00 92 1014.4
20260507083915 4 336 0.0 0.0 0.00 0.00 0.00 92 1014.4
20260507083411 4 336 0.0 0.0 0.00 0.00 0.00 92 1014.4
20260507082907 4 336 0.0 0.0 0.00 0.00 0.00 92 1014.4
20260507082403 4 336 0.0 0.0 0.00 0.00 0.00 92 1014.4
20260507081900 5 336 0.0 0.0 0.00 0.00 0.00 92 1014.4
20260507081356 5 336 0.0 0.0 0.00 0.00 0.00 92 1014.4
20260507080853 5 335 0.0 0.0 0.00 0.00 0.00 92 1014.5
20260507080349 5 336 0.0 0.0 0.00 0.00 0.00 92 1014.4
20260507075845 4 336 0.0 0.0 0.00 0.00 0.00 92 1014.3
20260507075341 4 336 0.0 0.0 0.00 0.00 0.00 91 1014.4
20260507074837 4 336 0.0 0.0 0.00 0.00 0.00 91 1014.5
20260507074335 4 336 0.0 0.0 0.00 0.00 0.00 91 1014.4
20260507073832 4 336 0.0 0.0 0.00 0.00 0.00 91 1014.3
20260507073329 4 336 0.0 0.0 0.00 0.00 0.00 91 1014.5
20260507072826 4 336 0.0 0.0 0.00 0.00 0.00 91 1014.5
20260507072323 5 336 0.0 0.0 0.00 0.00 0.00 91 1014.4
20260507071821 5 336 0.0 0.0 0.00 0.00 0.00 91 1014.4
20260507071317 5 336 0.0 0.0 0.00 0.00 0.00 91 1014.5
20260507070814 5 336 0.0 0.0 0.00 0.00 0.00 91 1014.4
20260507070311 5 336 0.0 0.0 0.00 0.00 0.00 91 1014.5
20260507065808 5 336 0.0 0.0 0.00 0.00 0.00 91 1014.3
20260507065306 5 336 0.0 0.0 0.00 0.00 0.00 90 1014.3
20260507064802 5 336 0.0 0.0 0.00 0.00 0.00 90 1014.4
20260507064300 5 336 0.0 0.0 0.00 0.00 0.00 90 1014.4
20260507063758 5 336 0.0 0.0 0.00 0.00 0.00 90 1014.7
20260507063254 5 336 0.0 0.0 0.00 0.00 0.00 90 1014.7
20260507062751 5 336 0.0 0.0 0.00 0.00 0.00 90 1014.6
20260507062248 5 336 0.0 0.0 0.00 0.00 0.00 90 1014.6
20260507061746 5 336 0.0 0.0 0.00 0.00 0.00 89 1014.4
20260507061244 5 336 0.0 0.0 0.00 0.00 0.00 89 1014.5
20260507060742 5 336 0.0 0.0 0.00 0.00 0.00 89 1014.6
20260507060238 5 336 0.0 0.0 0.00 0.00 0.00 89 1014.4
20260507055735 5 336 0.0 0.0 0.00 0.00 0.00 89 1014.5
20260507055230 5 336 0.0 0.0 0.00 0.00 0.00 88 1014.3
20260507054727 5 336 0.0 0.0 0.00 0.00 0.00 88 1014.6
20260507054224 5 336 0.0 0.0 0.00 0.00 0.00 88 1014.6
20260507053721 5 336 0.0 0.0 0.00 0.00 0.00 88 1014.8
20260507053219 5 336 0.0 0.0 0.00 0.00 0.00 87 1014.8
20260507052718 5 336 0.0 0.0 0.00 0.00 0.00 87 1014.5
20260507052213 5 336 0.0 0.0 0.00 0.00 0.00 87 1014.5
20260507051711 5 336 0.0 0.0 0.00 0.00 0.00 86 1014.7
20260507051208 5 336 0.0 0.0 0.00 0.00 0.00 86 1014.7
20260507050704 5 336 0.0 0.0 0.00 0.00 0.00 86 1014.8
20260507050201 5 336 0.0 0.0 0.00 0.00 0.00 86 1014.7
20260507045658 5 336 0.0 0.0 0.00 0.00 0.00 85 1014.7
20260507045156 5 336 0.0 0.0 0.00 0.00 0.00 85 1014.8
20260507044652 6 336 0.0 0.0 0.00 0.00 0.00 85 1014.8
20260507044148 6 336 0.0 0.0 0.00 0.00 0.00 85 1014.9
20260507043644 6 336 0.0 0.0 0.00 0.00 0.00 85 1014.7
20260507043142 6 336 0.0 0.0 0.00 0.00 0.00 85 1014.8
20260507042638 6 336 0.0 0.0 0.00 0.00 0.00 84 1014.8
20260507042133 6 336 0.0 0.0 0.00 0.00 0.00 84 1014.7
20260507041630 6 336 0.0 0.0 0.00 0.00 0.00 83 1014.8
20260507041127 6 336 0.0 0.0 0.00 0.00 0.00 83 1014.7
20260507040624 6 336 0.0 0.0 0.00 0.00 0.00 83 1014.8
20260507040120 6 336 0.0 0.0 0.00 0.00 0.00 83 1014.6
20260507035616 6 336 0.0 0.0 0.00 0.94 0.94 82 1014.6
20260507035112 6 336 0.0 0.0 0.00 0.94 0.94 82 1014.8
20260507034609 6 336 0.0 0.0 0.00 0.94 0.94 82 1014.5
20260507034107 6 336 0.0 0.0 0.00 0.94 0.94 82 1014.8
20260507033605 6 336 0.0 0.0 0.00 0.94 0.94 82 1014.8
20260507033102 6 336 0.0 0.0 0.00 0.94 0.94 82 1014.7
20260507032559 7 336 0.0 0.0 0.00 0.94 0.94 82 1014.7
20260507032055 7 336 0.0 0.0 0.00 0.94 0.94 82 1014.7
20260507031552 7 336 0.0 0.0 0.00 0.94 0.94 82 1014.6
20260507031049 7 336 0.0 0.0 0.00 0.94 0.94 81 1014.7
20260507030545 7 336 0.0 0.0 0.00 0.94 0.94 81 1014.9
20260507030043 7 336 0.0 0.0 0.00 0.94 0.94 81 1014.8
20260507025540 7 336 0.0 0.0 0.00 0.94 0.94 80 1014.9
20260507025038 7 336 0.0 0.0 0.00 0.94 0.94 79 1014.8
20260507024536 7 336 0.0 0.0 0.00 0.94 0.94 78 1014.8
20260507024032 7 336 0.0 0.0 0.00 0.94 0.94 78 1014.8
20260507023527 7 336 0.0 0.0 0.00 0.94 0.94 78 1014.5
20260507023026 7 336 0.0 0.0 0.00 0.94 0.94 78 1014.7
20260507022522 8 336 0.0 0.0 0.00 0.94 0.94 78 1014.5
20260507022017 8 336 0.0 0.0 0.00 0.94 0.94 77 1014.6
20260507021514 8 336 0.0 0.0 0.00 0.94 0.94 76 1014.6
20260507021010 8 336 0.0 0.0 0.00 0.94 0.94 76 1014.6
20260507020508 8 336 0.0 0.0 0.00 0.94 0.94 76 1014.6
20260507020004 8 336 0.0 0.0 0.00 0.94 0.94 76 1014.6
20260507015503 8 336 0.0 0.0 0.00 0.94 0.94 75 1014.4
20260507015000 8 337 0.0 0.0 0.00 0.94 0.94 75 1014.5
20260507014456 8 337 0.0 0.0 0.00 0.94 0.94 75 1014.5
20260507013952 8 336 0.0 0.0 0.00 0.94 0.94 74 1014.3
20260507013449 9 337 0.0 0.0 0.00 0.94 0.94 73 1014.2
20260507012946 9 336 0.0 0.0 0.00 0.94 0.94 72 1014.1
20260507012443 9 336 0.0 0.0 0.00 0.94 0.94 72 1014.3
20260507011940 10 336 0.0 0.0 0.00 0.94 0.94 71 1014.0
20260507011437 10 336 0.0 0.0 0.00 0.94 0.94 71 1013.9
20260507010937 10 337 0.0 0.0 0.00 0.94 0.94 68 1014.1
20260507010432 10 337 0.0 0.0 0.00 0.94 0.94 66 1014.1
20260507005929 10 337 0.0 0.0 0.00 0.94 0.94 66 1014.0
20260507005427 11 337 0.0 0.0 0.00 0.94 0.94 65 1013.9
20260507004923 11 335 0.0 0.0 0.00 0.94 0.94 64 1013.9
20260507004420 11 335 0.0 0.0 0.00 0.94 0.94 64 1014.0
20260507003917 12 329 0.0 0.0 0.00 0.94 0.94 62 1014.1
20260507003412 12 333 0.0 0.0 0.00 0.94 0.94 59 1013.8
20260507002908 12 330 1.6 1.6 0.00 0.94 0.94 58 1014.0
20260507002404 12 337 0.0 0.0 0.00 0.94 0.94 59 1013.8
20260507001902 12 336 0.0 0.0 0.00 0.94 0.94 59 1013.7
20260507001358 13 311 0.0 0.0 0.00 0.94 0.94 58 1013.9
20260507000855 13 335 3.2 4.8 0.00 0.94 0.94 55 1013.8
20260507000350 13 320 1.6 1.6 0.00 0.94 0.94 56 1013.8
20260506235847 13 338 0.0 1.6 0.00 0.94 0.94 56 1013.6
20260506235344 13 321 0.0 0.0 0.00 0.94 0.94 54 1013.5
20260506234840 13 225 6.4 6.4 0.00 0.94 0.94 52 1013.4
20260506234338 13 341 0.0 1.6 0.00 0.94 0.94 52 1013.2
20260506233835 13 326 1.6 3.2 0.00 0.94 0.94 52 1013.2
20260506233331 13 335 0.0 1.6 0.00 0.94 0.94 53 1013.5
20260506232828 14 335 1.6 3.2 0.00 0.94 0.94 51 1013.3
20260506232323 14 285 4.8 6.4 0.00 0.94 0.94 51 1013.4
20260506231820 15 339 1.6 1.6 0.00 0.94 0.94 53 1012.9
20260506231318 13 322 0.0 1.6 0.00 0.94 0.94 53 1012.9
20260506230815 13 354 3.2 4.8 0.00 0.94 0.94 52 1012.9
20260506230312 13 330 1.6 1.6 0.00 0.94 0.94 54 1013.1
20260506225808 13 350 0.0 1.6 0.00 0.94 0.94 52 1013.2
20260506225306 13 337 1.6 1.6 0.00 0.94 0.94 53 1013.2
20260506224802 14 334 3.2 4.8 0.00 0.94 0.94 53 1013.2
20260506224300 15 328 1.6 1.6 0.00 0.94 0.94 50 1013.3
20260506223756 15 329 0.0 0.0 0.00 0.94 0.94 54 1013.4
20260506223251 14 335 0.0 1.6 0.00 0.94 0.94 54 1013.2
20260506222748 14 301 3.2 3.2 0.00 0.94 0.94 52 1013.4
20260506222244 14 335 1.6 1.6 0.00 0.94 0.94 52 1013.5
20260506221737 14 309 1.6 3.2 0.00 0.94 0.94 53 1013.3
20260506221234 14 290 1.6 1.6 0.00 0.94 0.94 54 1013.4
20260506220731 14 287 1.6 1.6 0.00 0.94 0.94 52 1013.6
20260506220226 14 335 0.0 1.6 0.00 0.94 0.94 53 1013.7
20260506215722 14 332 3.2 3.2 0.00 0.94 0.94 54 1013.4
20260506215218 14 329 1.6 1.6 0.00 0.94 0.94 50 1013.4
20260506214715 14 276 4.8 4.8 0.00 0.94 0.94 50 1013.5
20260506214212 14 336 1.6 3.2 0.00 0.94 0.94 52 1013.4
20260506213710 14 335 1.6 1.6 0.00 0.94 0.94 51 1013.4
20260506213208 15 281 1.6 3.2 0.00 0.94 0.94 50 1013.3
20260506212704 15 280 4.8 6.4 0.00 0.94 0.94 51 1013.2
20260506212200 15 205 6.4 6.4 0.00 0.94 0.94 50 1013.1
20260506211655 15 303 1.6 1.6 0.00 0.94 0.94 51 1013.2
20260506211152 15 265 3.2 3.2 0.00 0.94 0.94 51 1013.1
20260506210649 15 300 1.6 3.2 0.00 0.94 0.94 53 1012.9
20260506210146 15 334 3.2 6.4 0.00 0.94 0.94 49 1013.0
20260506205644 15 350 0.0 0.0 0.00 0.94 0.94 52 1012.9
20260506205143 15 326 0.0 1.6 0.00 0.94 0.94 52 1013.0
20260506204642 15 253 3.2 4.8 0.00 0.94 0.94 51 1012.8
20260506204138 15 310 1.6 1.6 0.00 0.94 0.94 50 1012.9
20260506203637 15 288 3.2 3.2 0.00 0.94 0.94 51 1012.9
20260506203133 15 334 4.8 6.4 0.00 0.94 0.94 50 1013.0
20260506202631 15 312 3.2 3.2 0.00 0.94 0.94 49 1013.1
20260506202127 15 321 1.6 3.2 0.00 0.94 0.94 51 1013.0
20260506201624 15 336 0.0 0.0 0.00 0.94 0.94 55 1012.9
20260506201120 15 348 1.6 1.6 0.00 0.94 0.94 52 1012.9
20260506200617 15 4 4.8 6.4 0.00 0.94 0.94 50 1013.0
20260506200114 15 343 3.2 3.2 0.00 0.94 0.94 50 1013.0
20260506195610 15 334 0.0 0.0 0.00 0.94 0.94 53 1012.9
20260506195107 15 359 1.6 1.6 0.00 0.94 0.94 50 1012.9
20260506194605 15 299 4.8 6.4 0.00 0.94 0.94 49 1012.9
20260506194101 16 283 4.8 4.8 0.00 0.94 0.94 50 1012.9
20260506193559 15 337 1.6 3.2 0.00 0.94 0.94 51 1012.7
20260506193056 15 312 1.6 3.2 0.00 0.94 0.94 48 1012.6
20260506192552 15 337 1.6 3.2 0.00 0.94 0.94 48 1012.6
20260506192048 15 332 1.6 1.6 0.00 0.94 0.94 50 1012.6
20260506191545 16 344 3.2 4.8 0.00 0.94 0.94 49 1012.7
20260506191041 16 304 0.0 1.6 0.00 0.94 0.94 51 1012.6
20260506190538 16 307 6.4 6.4 0.00 0.94 0.94 47 1012.6
20260506190035 16 6 3.2 3.2 0.00 0.94 0.94 44 1012.7
20260506185533 16 338 1.6 1.6 0.00 0.94 0.94 51 1012.6
20260506185029 16 26 3.2 3.2 0.00 0.94 0.94 48 1012.6
20260506184527 16 333 1.6 3.2 0.00 0.94 0.94 51 1012.6
20260506184024 16 26 4.8 4.8 0.00 0.94 0.94 50 1012.5
20260506183519 16 34 1.6 1.6 0.00 0.94 0.94 46 1012.4
20260506183016 16 343 1.6 3.2 0.00 0.94 0.94 49 1012.5
20260506182514 15 334 1.6 3.2 0.00 0.94 0.94 50 1012.4
20260506182010 15 301 3.2 3.2 0.00 0.94 0.94 53 1012.5
20260506181508 16 71 3.2 3.2 0.00 0.94 0.94 51 1012.5
20260506181005 15 285 1.6 3.2 0.00 0.94 0.94 54 1012.7
20260506180502 15 322 1.6 3.2 0.00 0.94 0.94 54 1012.9
20260506175958 15 233 3.2 6.4 0.00 0.94 0.94 55 1012.9
20260506175455 14 335 0.0 1.6 0.00 0.94 0.94 57 1012.8
20260506174951 14 331 0.0 0.0 0.00 0.94 0.94 55 1012.9
20260506174450 13 299 3.2 4.8 0.00 0.94 0.94 55 1012.9
20260506173946 14 325 1.6 1.6 0.00 0.94 0.94 51 1012.9
20260506173443 14 322 4.8 9.7 0.00 0.94 0.94 52 1013.0
20260506172940 15 216 6.4 6.4 0.00 0.94 0.94 52 1013.0